Terminal Aerodrome Forecast
Issued by NWS

Current Version | Previous Version | Text Only | Print | Product List | Glossary On
Versions: 1 2 3 4 5 6 7 8 9 10 11 12 13 14 15 16 17 18 19 20 21 22 23 24 25
000 FTUS41 KOKX 290800 AAA TAFGON TAF AMD KGON 290830Z 2909/3006 30007KT P6SM SCT070 FM291600 26008KT P6SM SCT070 FM291800 22008KT P6SM SCT070 FM300400 VRB04KT P6SM SCT050=

USA.gov is the U.S. government's official web portal to all federal, state and local government web resources and services.